This demonstration page uses our WeatherBlox Daily Observations layout. Learn more.

39.92423, -83.80882

Hourly Observations for September 19, 2017

Temp ( °F °C ) Dew Point ( °F °C ) Humidity (%) Winds ( mph kmh ) Pressure ( in mb ) Visibility ( mi km ) Precip ( " mm )
12:56 am 00:56 Mostly Clear with Mist and Fog 64 17.8 63 17.2 96 96 E 5 7 30 1016 4 6.437376 0 0
1:56 am 01:56 Mostly Cloudy with Mist and Fog 65 18.3 64 17.8 97 97 Calm 29.97 1015 5 8.04672 0 0
2:56 am 02:56 Mostly Cloudy with Mist and Fog 64 17.8 63 17.2 96 96 ENE 3 6 29.97 1015 4 6.437376 0 0
3:56 am 03:56 Cloudy with Mist and Fog 65 18.3 64 17.8 97 97 E 3 6 29.97 1015 4 6.437376 0.01 0.254
4:56 am 04:56 Partly Cloudy 66 18.9 64 17.8 93 93 SE 6 9 29.94 1014 7 11.265408 0 0
5:56 am 05:56 Mostly Clear with Mist and Fog 66 18.9 64 17.8 93 93 SE 3 6 29.94 1014 6 9.656064 0 0
6:56 am 06:56 Clear 66 18.9 64 17.8 93 93 SSE 5 7 29.97 1015 7 11.265408 0 0
7:56 am 07:56 Cloudy 66 18.9 64 17.8 93 93 SE 6 9 29.97 1015 9 14.484096 0 0
8:56 am 08:56 Cloudy 68 20 64 17.8 87 87 SSE 7 11 29.97 1015 10 16.09344 0 0
9:56 am 09:56 Cloudy 69 20.6 64 17.8 84 84 SSW 5 7 29.97 1015 10 16.09344 0.001 0.001
10:56 am 10:56 Cloudy 72 22.2 66 18.9 82 82 S 5 7 30 1016 10 16.09344 0.001 0.001
11:56 am 11:56 Cloudy 73 22.8 66 18.9 79 79 SW 8 13 30 1016 10 16.09344 0 0
12:36 pm 12:36 Cloudy with Nearby Thunderstorms 72 22 66 19 83 83 SW 9 15 30 1016 5 8.04672 0.04 1.016
12:47 pm 12:47 Cloudy with Nearby Thunderstorms 68 20 66 19 94 94 WSW 9 15 30 1016 2 3.218688 0.27 6.858
12:56 pm 12:56 Cloudy with Nearby Thunderstorms 67 19.4 65 18.3 93 93 SW 6 9 30 1016 5 8.04672 0.3 7.62
1:03 pm 13:03 Cloudy with Heavy Thunderstorms 66 19 66 19 100 100 SSW 5 7 30 1016 5 8.04672 0.03 0.762
1:35 pm 13:35 Cloudy with Rain 68 20 66 19 94 94 Calm 29.97 1015 10 16.09344 0.09 2.286
1:56 pm 13:56 Cloudy with Rain 69 20.6 67 19.4 93 93 SE 5 7 29.97 1015 7 11.265408 0.11 2.794
2:15 pm 14:15 Cloudy with Light Rain 70 21 66 19 88 88 SE 6 9 29.97 1015 8 12.874752 0.001 0.001
2:56 pm 14:56 Cloudy 71 21.7 67 19.4 87 87 SSW 6 9 29.97 1015 10 16.09344 0.001 0.001
3:03 pm 15:03 Mostly Cloudy 72 22 66 19 83 83 S 6 9 29.97 1015 10 16.09344 0 0
3:30 pm 15:30 Mostly Cloudy 72 22 68 20 88 88 S 7 11 29.94 1014 10 16.09344 0 0
3:56 pm 15:56 Partly Cloudy 74 23.3 66 18.9 76 76 S 8 13 29.94 1014 10 16.09344 0 0
4:56 pm 16:56 Cloudy 74 23.3 67 19.4 79 79 SSW 5 7 29.91 1013 10 16.09344 0 0
5:56 pm 17:56 Cloudy 72 22.2 65 18.3 79 79 SW 5 7 29.91 1013 10 16.09344 0 0
6:56 pm 18:56 Cloudy 71 21.7 65 18.3 81 81 Calm 29.94 1014 10 16.09344 0 0
7:56 pm 19:56 Cloudy 69 20.6 66 18.9 90 90 S 3 6 29.94 1014 10 16.09344 0 0
8:56 pm 20:56 Mostly Cloudy 67 19.4 65 18.3 93 93 ESE 6 9 29.94 1014 10 16.09344 0 0
9:56 pm 21:56 Clear 67 19.4 64 17.8 91 91 SE 3 6 29.94 1014 10 16.09344 0 0
10:56 pm 22:56 Partly Cloudy 68 20 66 18.9 93 93 SSE 5 7 29.94 1014 10 16.09344 0 0
11:56 pm 23:56 Clear 67 19.4 65 18.3 93 93 S 3 6 29.94 1014 10 16.09344 0 0

Powered by AerisWeather